Torna al catalogo

ATLAS 5 CENTAUR DEB

LostHEO
NORAD 52970·DEBRIS·🇺🇸 United States

Lanciato Oct 17, 2018 da Cape Canaveral Space Force Station

Loading…

Prossimi Passaggi (prossime 24 ore)

TLE

ObsoletoSource: Space-Track

Epoca: Mar 8, 2024, 18:54 UTC

1 52970U 18079GU  24068.78750252  .00000032  00000-0  00000+0 0  9998
2 52970  12.3763  64.9172 5244536 283.9202  25.1172  2.00746876 14509

Traccia ATLAS 5 CENTAUR DEB in tempo reale con AllMySat

Download on the App Store